| time (UTC) | temp C | wind direction | speed KPH | gust KPH | rain 1hr cm | rain 24hr cm | rain mn cm | humidity % | barometer mb |
| 20260507051004 | 6 | 259 | 3.2 | 8.0 | 0.00 | 0.79 | 0.00 | 90 | 1007.4 |
| 20260507050503 | 6 | 246 | 3.2 | 9.7 | 0.00 | 0.79 | 0.00 | 90 | 1007.4 |
| 20260507050003 | 6 | 251 | 4.8 | 12.9 | 0.00 | 0.79 | 0.00 | 90 | 1007.5 |
| 20260507045503 | 6 | 251 | 1.6 | 11.3 | 0.00 | 0.79 | 0.00 | 90 | 1007.7 |
| 20260507045003 | 6 | 253 | 4.8 | 12.9 | 0.00 | 0.79 | 0.00 | 90 | 1007.8 |
| 20260507044504 | 6 | 251 | 1.6 | 11.3 | 0.00 | 0.79 | 0.00 | 90 | 1007.9 |
| 20260507044003 | 6 | 265 | 1.6 | 9.7 | 0.00 | 0.79 | 0.00 | 90 | 1008.0 |
| 20260507043503 | 6 | 239 | 1.6 | 11.3 | 0.00 | 0.79 | 0.00 | 90 | 1008.0 |
| 20260507043003 | 6 | 255 | 1.6 | 11.3 | 0.00 | 0.79 | 0.00 | 90 | 1008.1 |
| 20260507042004 | 6 | 258 | 3.2 | 11.3 | 0.00 | 0.79 | 0.00 | 90 | 1008.1 |
| 20260507040004 | 6 | 256 | 0.0 | 0.0 | 0.00 | 0.79 | 0.00 | 90 | 1008.2 |
| 20260507035504 | 6 | 267 | 0.0 | 4.8 | 0.00 | 0.79 | 0.79 | 90 | 1008.3 |
| 20260507035003 | 6 | 250 | 1.6 | 11.3 | 0.00 | 0.79 | 0.79 | 90 | 1008.3 |
| 20260507034503 | 6 | 239 | 0.0 | 0.0 | 0.00 | 0.79 | 0.79 | 90 | 1008.3 |
| 20260507033004 | 6 | 246 | 0.0 | 0.0 | 0.00 | 0.79 | 0.79 | 90 | 1008.4 |
| 20260507032503 | 6 | 246 | 0.0 | 0.0 | 0.00 | 0.79 | 0.79 | 89 | 1008.4 |
| 20260507032004 | 6 | 249 | 0.0 | 0.0 | 0.00 | 0.79 | 0.79 | 89 | 1008.4 |
| 20260507031004 | 6 | 266 | 0.0 | 0.0 | 0.00 | 0.81 | 0.79 | 89 | 1008.5 |
| 20260507030503 | 6 | 273 | 0.0 | 0.0 | 0.00 | 0.81 | 0.79 | 89 | 1008.5 |
| 20260507025503 | 6 | 271 | 0.0 | 0.0 | 0.00 | 0.81 | 0.79 | 89 | 1008.5 |
| 20260507025004 | 7 | 270 | 0.0 | 0.0 | 0.00 | 0.81 | 0.79 | 89 | 1008.5 |
| 20260507024004 | 7 | 271 | 0.0 | 0.0 | 0.00 | 0.81 | 0.79 | 89 | 1008.6 |
| 20260507023503 | 7 | 270 | 0.0 | 0.0 | 0.00 | 0.81 | 0.79 | 89 | 1008.6 |
| 20260507023004 | 7 | 271 | 0.0 | 0.0 | 0.00 | 0.81 | 0.79 | 88 | 1008.6 |
| 20260507022503 | 7 | 271 | 0.0 | 0.0 | 0.00 | 0.81 | 0.79 | 88 | 1008.6 |
| 20260507022003 | 7 | 273 | 0.0 | 0.0 | 0.00 | 0.81 | 0.79 | 88 | 1008.6 |
| 20260507021503 | 7 | 271 | 0.0 | 0.0 | 0.00 | 0.81 | 0.79 | 88 | 1008.6 |
| 20260507021004 | 7 | 270 | 0.0 | 0.0 | 0.00 | 0.81 | 0.79 | 88 | 1008.6 |
| 20260507020503 | 7 | 273 | 0.0 | 0.0 | 0.00 | 0.81 | 0.79 | 88 | 1008.7 |
| 20260507015503 | 7 | 271 | 0.0 | 0.0 | 0.00 | 0.81 | 0.79 | 87 | 1008.8 |
| 20260507015004 | 7 | 271 | 0.0 | 0.0 | 0.00 | 0.81 | 0.79 | 87 | 1008.8 |
| 20260507014503 | 7 | 271 | 0.0 | 0.0 | 0.00 | 0.81 | 0.79 | 87 | 1008.9 |
| 20260507013004 | 7 | 271 | 0.0 | 0.0 | 0.00 | 0.81 | 0.79 | 87 | 1009.0 |
| 20260507012503 | 7 | 271 | 0.0 | 0.0 | 0.00 | 0.81 | 0.79 | 86 | 1008.9 |
| 20260507012004 | 7 | 271 | 0.0 | 0.0 | 0.00 | 0.81 | 0.79 | 86 | 1008.9 |
| 20260507011503 | 7 | 271 | 0.0 | 0.0 | 0.00 | 0.81 | 0.79 | 86 | 1008.9 |
| 20260507011004 | 7 | 271 | 0.0 | 0.0 | 0.00 | 0.81 | 0.79 | 86 | 1008.9 |
| 20260507010503 | 7 | 271 | 0.0 | 0.0 | 0.00 | 0.81 | 0.79 | 86 | 1008.8 |
| 20260507010004 | 7 | 273 | 0.0 | 0.0 | 0.00 | 0.81 | 0.79 | 86 | 1008.7 |
| 20260507005503 | 7 | 272 | 0.0 | 0.0 | 0.00 | 0.81 | 0.79 | 86 | 1008.8 |
| 20260507005004 | 7 | 270 | 0.0 | 0.0 | 0.00 | 0.81 | 0.79 | 86 | 1008.8 |
| 20260507004003 | 7 | 272 | 0.0 | 0.0 | 0.00 | 0.81 | 0.79 | 85 | 1008.7 |
| 20260507003503 | 7 | 272 | 0.0 | 0.0 | 0.00 | 0.81 | 0.79 | 85 | 1008.6 |
| 20260507003004 | 7 | 272 | 0.0 | 0.0 | 0.00 | 0.81 | 0.79 | 85 | 1008.6 |
| 20260507002503 | 7 | 273 | 0.0 | 0.0 | 0.00 | 0.81 | 0.79 | 84 | 1008.5 |
| 20260507001503 | 7 | 272 | 0.0 | 0.0 | 0.00 | 0.81 | 0.79 | 84 | 1008.3 |
| 20260507001004 | 7 | 272 | 0.0 | 0.0 | 0.00 | 0.81 | 0.79 | 83 | 1008.4 |
| 20260507000503 | 7 | 270 | 0.0 | 0.0 | 0.00 | 0.81 | 0.79 | 83 | 1008.3 |
| 20260507000004 | 7 | 270 | 0.0 | 0.0 | 0.00 | 0.81 | 0.79 | 83 | 1008.2 |
| 20260506235504 | 7 | 270 | 0.0 | 0.0 | 0.00 | 0.81 | 0.79 | 83 | 1008.2 |
| 20260506235005 | 7 | 275 | 0.0 | 0.0 | 0.00 | 0.81 | 0.79 | 82 | 1008.2 |
| 20260506234504 | 7 | 271 | 0.0 | 0.0 | 0.00 | 0.81 | 0.79 | 82 | 1008.3 |
| 20260506234004 | 7 | 271 | 0.0 | 0.0 | 0.00 | 0.81 | 0.79 | 81 | 1008.3 |
| 20260506233503 | 7 | 270 | 0.0 | 0.0 | 0.00 | 0.81 | 0.79 | 81 | 1008.2 |
| 20260506233003 | 8 | 274 | 0.0 | 0.0 | 0.00 | 0.81 | 0.79 | 81 | 1008.1 |
| 20260506232503 | 8 | 281 | 0.0 | 0.0 | 0.00 | 0.81 | 0.79 | 80 | 1008.0 |
| 20260506232003 | 8 | 280 | 0.0 | 0.0 | 0.00 | 0.81 | 0.79 | 80 | 1008.0 |
| 20260506231003 | 8 | 281 | 0.0 | 0.0 | 0.00 | 0.81 | 0.79 | 79 | 1008.0 |
| 20260506230504 | 8 | 283 | 0.0 | 0.0 | 0.00 | 0.81 | 0.79 | 79 | 1008.0 |
| 20260506230004 | 8 | 281 | 0.0 | 0.0 | 0.00 | 0.81 | 0.79 | 78 | 1008.0 |
| 20260506225503 | 8 | 282 | 0.0 | 0.0 | 0.00 | 0.81 | 0.79 | 78 | 1008.0 |
| 20260506225004 | 8 | 283 | 0.0 | 0.0 | 0.00 | 0.81 | 0.79 | 78 | 1008.0 |
| 20260506224503 | 8 | 271 | 0.0 | 0.0 | 0.00 | 0.81 | 0.79 | 79 | 1008.0 |
| 20260506224003 | 8 | 272 | 0.0 | 0.0 | 0.00 | 0.81 | 0.79 | 79 | 1008.0 |
| 20260506223004 | 8 | 262 | 0.0 | 4.8 | 0.00 | 0.81 | 0.79 | 79 | 1007.9 |
| 20260506222503 | 8 | 261 | 1.6 | 4.8 | 0.00 | 0.81 | 0.79 | 80 | 1008.0 |
| 20260506222004 | 8 | 261 | 0.0 | 4.8 | 0.00 | 0.81 | 0.79 | 80 | 1008.1 |
| 20260506221003 | 8 | 245 | 1.6 | 9.7 | 0.00 | 0.81 | 0.79 | 80 | 1008.1 |
| 20260506220504 | 8 | 253 | 0.0 | 4.8 | 0.00 | 0.81 | 0.79 | 80 | 1008.1 |
| 20260506220004 | 8 | 274 | 3.2 | 4.8 | 0.00 | 0.81 | 0.79 | 80 | 1008.0 |
| 20260506215503 | 8 | 275 | 3.2 | 4.8 | 0.00 | 0.81 | 0.79 | 81 | 1008.1 |
| 20260506215004 | 8 | 275 | 3.2 | 4.8 | 0.00 | 0.81 | 0.79 | 82 | 1008.1 |
| 20260506214504 | 8 | 269 | 3.2 | 4.8 | 0.00 | 0.81 | 0.79 | 82 | 1008.1 |
| 20260506214003 | 8 | 267 | 0.0 | 4.8 | 0.00 | 0.81 | 0.79 | 83 | 1008.1 |
| 20260506213503 | 8 | 266 | 0.0 | 0.0 | 0.00 | 0.81 | 0.79 | 83 | 1008.0 |
| 20260506213003 | 8 | 266 | 0.0 | 0.0 | 0.00 | 0.81 | 0.79 | 83 | 1008.0 |
| 20260506212504 | 8 | 266 | 0.0 | 0.0 | 0.00 | 0.81 | 0.79 | 84 | 1008.0 |
| 20260506212003 | 8 | 266 | 0.0 | 0.0 | 0.00 | 0.81 | 0.79 | 85 | 1008.0 |
| 20260506211503 | 8 | 266 | 0.0 | 0.0 | 0.00 | 0.81 | 0.79 | 85 | 1007.9 |
| 20260506211004 | 8 | 266 | 0.0 | 4.8 | 0.00 | 0.81 | 0.79 | 85 | 1008.0 |
| 20260506210503 | 7 | 267 | 1.6 | 4.8 | 0.00 | 0.81 | 0.79 | 84 | 1008.0 |
| 20260506210004 | 8 | 260 | 1.6 | 4.8 | 0.00 | 0.81 | 0.79 | 85 | 1008.2 |
| 20260506205005 | 8 | 277 | 1.6 | 4.8 | 0.00 | 0.81 | 0.79 | 85 | 1008.4 |
| 20260506204004 | 8 | 274 | 3.2 | 4.8 | 0.00 | 0.81 | 0.79 | 86 | 1008.2 |
| 20260506203503 | 8 | 266 | 0.0 | 4.8 | 0.00 | 0.81 | 0.79 | 86 | 1008.2 |
| 20260506203003 | 8 | 266 | 1.6 | 11.3 | 0.00 | 0.81 | 0.79 | 85 | 1008.3 |
| 20260506202503 | 8 | 289 | 1.6 | 8.0 | 0.00 | 0.81 | 0.79 | 85 | 1008.4 |
| 20260506202003 | 8 | 283 | 0.0 | 4.8 | 0.00 | 0.81 | 0.79 | 85 | 1008.3 |
| 20260506200504 | 8 | 277 | 0.0 | 4.8 | 0.00 | 0.81 | 0.79 | 86 | 1008.3 |
| 20260506200004 | 8 | 277 | 1.6 | 4.8 | 0.00 | 0.81 | 0.79 | 86 | 1008.3 |
| 20260506195503 | 8 | 282 | 1.6 | 11.3 | 0.00 | 0.81 | 0.79 | 86 | 1008.4 |
| 20260506195003 | 8 | 298 | 1.6 | 9.7 | 0.00 | 0.81 | 0.79 | 87 | 1008.5 |
| 20260506194504 | 8 | 290 | 0.0 | 3.2 | 0.00 | 0.81 | 0.79 | 86 | 1008.4 |
| 20260506193503 | 8 | 286 | 1.6 | 9.7 | 0.00 | 0.81 | 0.79 | 85 | 1008.6 |
| 20260506193004 | 8 | 291 | 1.6 | 4.8 | 0.00 | 0.81 | 0.79 | 84 | 1008.6 |
| 20260506192503 | 8 | 303 | 1.6 | 4.8 | 0.00 | 0.81 | 0.79 | 85 | 1008.6 |
| 20260506192004 | 8 | 288 | 0.0 | 4.8 | 0.00 | 0.81 | 0.79 | 84 | 1008.7 |
| 20260506191503 | 8 | 16 | 0.0 | 0.0 | 0.00 | 0.81 | 0.79 | 85 | 1008.5 |
| 20260506190503 | 8 | 114 | 0.0 | 0.0 | 0.00 | 0.81 | 0.79 | 86 | 1008.4 |
| 20260506190003 | 8 | 112 | 0.0 | 0.0 | 0.00 | 0.81 | 0.79 | 85 | 1008.5 |
| 20260506185003 | 8 | 112 | 0.0 | 0.0 | 0.00 | 0.81 | 0.79 | 86 | 1008.5 |
| 20260506184504 | 8 | 112 | 0.0 | 0.0 | 0.00 | 0.81 | 0.79 | 88 | 1008.3 |
| 20260506184003 | 8 | 110 | 0.0 | 0.0 | 0.00 | 0.81 | 0.79 | 88 | 1008.3 |
| 20260506183504 | 7 | 110 | 0.0 | 0.0 | 0.00 | 0.81 | 0.79 | 88 | 1008.3 |
| 20260506182503 | 8 | 110 | 0.0 | 0.0 | 0.03 | 0.81 | 0.79 | 89 | 1008.4 |
| 20260506182004 | 7 | 283 | 0.0 | 0.0 | 0.03 | 0.81 | 0.79 | 89 | 1008.3 |
| 20260506181503 | 7 | 284 | 0.0 | 0.0 | 0.03 | 0.81 | 0.79 | 90 | 1008.4 |
| 20260506181004 | 7 | 284 | 0.0 | 0.0 | 0.03 | 0.81 | 0.79 | 90 | 1008.5 |
| 20260506180503 | 7 | 284 | 0.0 | 0.0 | 0.03 | 0.81 | 0.79 | 90 | 1008.6 |
| 20260506180004 | 7 | 284 | 0.0 | 0.0 | 0.03 | 0.81 | 0.79 | 90 | 1008.7 |
| 20260506175504 | 7 | 284 | 0.0 | 0.0 | 0.03 | 0.81 | 0.79 | 90 | 1008.8 |
| 20260506175003 | 7 | 284 | 0.0 | 0.0 | 0.03 | 0.81 | 0.79 | 90 | 1008.9 |
| 20260506174503 | 7 | 284 | 0.0 | 0.0 | 0.03 | 0.81 | 0.79 | 90 | 1009.0 |
| 20260506174004 | 7 | 284 | 0.0 | 0.0 | 0.03 | 0.81 | 0.79 | 90 | 1009.1 |
| 20260506173005 | 7 | 284 | 0.0 | 0.0 | 0.05 | 0.81 | 0.79 | 90 | 1009.0 |
| 20260506172504 | 7 | 283 | 0.0 | 0.0 | 0.03 | 0.79 | 0.79 | 90 | 1009.0 |
| 20260506171503 | 6 | 284 | 0.0 | 0.0 | 0.03 | 0.79 | 0.79 | 89 | 1009.2 |
| 20260506171004 | 6 | 283 | 0.0 | 0.0 | 0.05 | 0.79 | 0.79 | 89 | 1009.4 |
| 20260506170503 | 6 | 283 | 0.0 | 0.0 | 0.05 | 0.79 | 0.79 | 90 | 1009.4 |
| 20260506170004 | 6 | 286 | 0.0 | 0.0 | 0.05 | 0.79 | 0.79 | 90 | 1009.5 |
| 20260506165503 | 6 | 283 | 0.0 | 0.0 | 0.05 | 0.79 | 0.79 | 90 | 1009.5 |
| 20260506165004 | 6 | 285 | 0.0 | 0.0 | 0.08 | 0.79 | 0.79 | 90 | 1009.4 |
| 20260506164503 | 6 | 287 | 0.0 | 0.0 | 0.08 | 0.79 | 0.79 | 90 | 1009.3 |
| 20260506164004 | 6 | 292 | 0.0 | 0.0 | 0.10 | 0.79 | 0.79 | 90 | 1009.4 |
| 20260506163503 | 6 | 286 | 0.0 | 0.0 | 0.13 | 0.79 | 0.79 | 90 | 1009.4 |
| 20260506162504 | 6 | 287 | 0.0 | 0.0 | 0.15 | 0.79 | 0.76 | 91 | 1009.6 |
| 20260506162003 | 6 | 284 | 0.0 | 0.0 | 0.15 | 0.79 | 0.76 | 91 | 1009.5 |
| 20260506161504 | 6 | 288 | 0.0 | 0.0 | 0.18 | 0.79 | 0.76 | 91 | 1009.6 |
| 20260506161003 | 6 | 288 | 0.0 | 0.0 | 0.15 | 0.76 | 0.74 | 91 | 1009.6 |
| 20260506160503 | 6 | 286 | 0.0 | 0.0 | 0.18 | 0.76 | 0.74 | 91 | 1009.8 |
| 20260506160003 | 6 | 284 | 0.0 | 0.0 | 0.20 | 0.76 | 0.74 | 91 | 1009.8 |
| 20260506155504 | 6 | 284 | 0.0 | 0.0 | 0.18 | 0.74 | 0.71 | 91 | 1009.9 |
| 20260506155003 | 6 | 286 | 0.0 | 0.0 | 0.18 | 0.71 | 0.71 | 91 | 1009.9 |
| 20260506153503 | 6 | 284 | 0.0 | 0.0 | 0.15 | 0.69 | 0.66 | 91 | 1010.0 |
| 20260506152503 | 6 | 284 | 0.0 | 0.0 | 0.15 | 0.64 | 0.61 | 91 | 1010.0 |
| 20260506152003 | 6 | 284 | 0.0 | 0.0 | 0.15 | 0.61 | 0.61 | 91 | 1010.0 |
| 20260506150504 | 6 | 273 | 0.0 | 4.8 | 0.15 | 0.58 | 0.56 | 91 | 1010.1 |
| 20260506150004 | 6 | 262 | 0.0 | 0.0 | 0.13 | 0.56 | 0.53 | 91 | 1010.1 |
| 20260506145503 | 6 | 275 | 0.0 | 0.0 | 0.13 | 0.56 | 0.53 | 91 | 1010.1 |
| 20260506145003 | 6 | 272 | 0.0 | 0.0 | 0.10 | 0.53 | 0.51 | 91 | 1010.1 |
| 20260506144503 | 6 | 269 | 0.0 | 0.0 | 0.13 | 0.53 | 0.51 | 91 | 1010.0 |
| 20260506144003 | 6 | 267 | 0.0 | 0.0 | 0.10 | 0.51 | 0.51 | 91 | 1010.0 |
| 20260506143504 | 6 | 266 | 0.0 | 0.0 | 0.10 | 0.51 | 0.51 | 90 | 1009.9 |
| 20260506142004 | 6 | 267 | 0.0 | 3.2 | 0.08 | 0.48 | 0.46 | 90 | 1009.9 |
| 20260506141503 | 6 | 269 | 1.6 | 4.8 | 0.05 | 0.46 | 0.43 | 90 | 1009.9 |
| 20260506141003 | 6 | 255 | 0.0 | 0.0 | 0.08 | 0.46 | 0.43 | 90 | 1009.9 |
| 20260506140503 | 6 | 249 | 0.0 | 4.8 | 0.05 | 0.43 | 0.43 | 90 | 1009.9 |
| 20260506140004 | 6 | 247 | 3.2 | 4.8 | 0.05 | 0.43 | 0.43 | 90 | 1010.0 |
| 20260506135504 | 6 | 262 | 3.2 | 9.7 | 0.08 | 0.43 | 0.43 | 90 | 1009.9 |
| 20260506135003 | 6 | 257 | 0.0 | 0.0 | 0.08 | 0.43 | 0.43 | 90 | 1009.8 |
| 20260506134504 | 6 | 248 | 0.0 | 0.0 | 0.05 | 0.43 | 0.41 | 91 | 1009.8 |
| 20260506134003 | 6 | 244 | 0.0 | 0.0 | 0.08 | 0.43 | 0.41 | 90 | 1009.8 |
| 20260506133503 | 6 | 247 | 0.0 | 0.0 | 0.08 | 0.43 | 0.41 | 91 | 1009.8 |
| 20260506132504 | 6 | 246 | 0.0 | 0.0 | 0.08 | 0.41 | 0.38 | 91 | 1009.8 |
| 20260506132005 | 6 | 246 | 0.0 | 0.0 | 0.08 | 0.41 | 0.38 | 91 | 1009.7 |
| 20260506130503 | 6 | 248 | 0.0 | 0.0 | 0.10 | 0.38 | 0.36 | 91 | 1009.8 |
| 20260506130003 | 6 | 250 | 0.0 | 0.0 | 0.13 | 0.38 | 0.36 | 91 | 1009.7 |
| 20260506125003 | 6 | 248 | 0.0 | 0.0 | 0.13 | 0.36 | 0.33 | 90 | 1009.9 |
| 20260506124504 | 6 | 248 | 0.0 | 1.6 | 0.15 | 0.36 | 0.33 | 90 | 1010.0 |
| 20260506124003 | 6 | 250 | 1.6 | 4.8 | 0.15 | 0.33 | 0.33 | 90 | 1010.0 |
| 20260506123503 | 6 | 250 | 0.0 | 4.8 | 0.15 | 0.33 | 0.33 | 90 | 1010.0 |
| 20260506123004 | 6 | 251 | 0.0 | 0.0 | 0.15 | 0.33 | 0.33 | 90 | 1010.0 |
| 20260506122503 | 6 | 250 | 0.0 | 0.0 | 0.15 | 0.33 | 0.30 | 90 | 1010.1 |
| 20260506122003 | 6 | 250 | 0.0 | 3.2 | 0.15 | 0.33 | 0.30 | 90 | 1010.0 |
| 20260506121505 | 6 | 251 | 1.6 | 4.8 | 0.15 | 0.30 | 0.28 | 90 | 1010.0 |
| 20260506121003 | 6 | 253 | 0.0 | 0.0 | 0.15 | 0.28 | 0.25 | 90 | 1009.9 |
| 20260506120004 | 6 | 264 | 0.0 | 4.8 | 0.15 | 0.25 | 0.23 | 90 | 1009.9 |
| 20260506115505 | 6 | 262 | 1.6 | 9.7 | 0.15 | 0.25 | 0.23 | 90 | 1009.9 |
| 20260506115004 | 6 | 267 | 1.6 | 9.7 | 0.15 | 0.23 | 0.23 | 90 | 1010.0 |
| 20260506114003 | 7 | 235 | 1.6 | 4.8 | 0.13 | 0.20 | 0.18 | 90 | 1010.1 |
| 20260506113504 | 7 | 251 | 0.0 | 4.8 | 0.13 | 0.20 | 0.18 | 90 | 1010.2 |
| 20260506113003 | 7 | 248 | 0.0 | 0.0 | 0.13 | 0.18 | 0.15 | 90 | 1010.3 |
| 20260506112503 | 7 | 243 | 0.0 | 0.0 | 0.10 | 0.15 | 0.15 | 90 | 1010.3 |
| 20260506112004 | 7 | 243 | 0.0 | 0.0 | 0.10 | 0.15 | 0.15 | 90 | 1010.4 |
| 20260506111503 | 7 | 243 | 0.0 | 0.0 | 0.08 | 0.15 | 0.13 | 89 | 1010.4 |
| 20260506111003 | 7 | 244 | 0.0 | 3.2 | 0.08 | 0.13 | 0.10 | 89 | 1010.3 |
| 20260506110004 | 7 | 218 | 0.0 | 0.0 | 0.08 | 0.10 | 0.08 | 89 | 1010.2 |
| 20260506105503 | 7 | 230 | 0.0 | 0.0 | 0.08 | 0.10 | 0.08 | 89 | 1010.1 |
| 20260506105003 | 7 | 301 | 0.0 | 1.6 | 0.05 | 0.08 | 0.05 | 89 | 1009.9 |
| 20260506104504 | 7 | 236 | 0.0 | 0.0 | 0.05 | 0.08 | 0.05 | 89 | 1009.6 |
| 20260506104003 | 7 | 236 | 0.0 | 0.0 | 0.05 | 0.08 | 0.05 | 88 | 1009.6 |
| 20260506103003 | 7 | 236 | 0.0 | 0.0 | 0.05 | 0.05 | 0.05 | 88 | 1009.6 |
| 20260506102504 | 7 | 236 | 0.0 | 0.0 | 0.05 | 0.05 | 0.05 | 87 | 1009.4 |
| 20260506102003 | 7 | 240 | 0.0 | 0.0 | 0.05 | 0.05 | 0.05 | 87 | 1009.5 |
| 20260506101504 | 7 | 236 | 1.6 | 4.8 | 0.05 | 0.05 | 0.05 | 87 | 1009.4 |
| 20260506101003 | 7 | 251 | 0.0 | 4.8 | 0.03 | 0.05 | 0.03 | 87 | 1009.3 |
| 20260506100003 | 7 | 244 | 1.6 | 4.8 | 0.00 | 0.03 | 0.00 | 86 | 1009.5 |
| 20260506095503 | 7 | 275 | 1.6 | 4.8 | 0.00 | 0.03 | 0.00 | 86 | 1009.5 |
| 20260506095003 | 7 | 264 | 3.2 | 11.3 | 0.00 | 0.03 | 0.00 | 85 | 1009.3 |
| 20260506094504 | 8 | 241 | 3.2 | 9.7 | 0.00 | 0.03 | 0.00 | 85 | 1009.3 |
| 20260506094004 | 8 | 259 | 3.2 | 11.3 | 0.00 | 0.03 | 0.00 | 84 | 1009.2 |
| 20260506093004 | 8 | 251 | 8.0 | 14.5 | 0.00 | 0.03 | 0.00 | 84 | 1009.3 |
| 20260506090503 | 8 | 237 | 0.0 | 4.8 | 0.00 | 0.03 | 0.00 | 84 | 1009.0 |
| 20260506090004 | 8 | 266 | 1.6 | 9.7 | 0.00 | 0.03 | 0.00 | 84 | 1009.0 |
| 20260506085503 | 8 | 264 | 1.6 | 9.7 | 0.00 | 0.03 | 0.00 | 84 | 1008.9 |
| 20260506085004 | 8 | 261 | 1.6 | 9.7 | 0.00 | 0.03 | 0.00 | 84 | 1008.7 |
| 20260506084503 | 8 | 249 | 4.8 | 11.3 | 0.00 | 0.03 | 0.00 | 84 | 1008.7 |
| 20260506084004 | 8 | 273 | 3.2 | 12.9 | 0.00 | 0.03 | 0.00 | 84 | 1008.9 |
| 20260506083504 | 8 | 245 | 3.2 | 9.7 | 0.00 | 0.03 | 0.00 | 84 | 1009.0 |
| 20260506083003 | 8 | 262 | 3.2 | 12.9 | 0.00 | 0.03 | 0.00 | 84 | 1009.2 |
| 20260506082503 | 8 | 267 | 3.2 | 11.3 | 0.00 | 0.03 | 0.00 | 84 | 1009.1 |
| 20260506082003 | 8 | 270 | 4.8 | 19.3 | 0.00 | 0.03 | 0.00 | 84 | 1009.1 |
| 20260506081503 | 8 | 253 | 1.6 | 11.3 | 0.00 | 0.03 | 0.00 | 84 | 1009.2 |
| 20260506080504 | 8 | 268 | 1.6 | 9.7 | 0.00 | 0.03 | 0.00 | 83 | 1008.9 |
| 20260506073503 | 8 | 241 | 3.2 | 11.3 | 0.00 | 0.03 | 0.00 | 83 | 1009.2 |
| 20260506073003 | 8 | 246 | 4.8 | 19.3 | 0.00 | 0.03 | 0.00 | 83 | 1009.2 |
| 20260506072503 | 8 | 248 | 4.8 | 16.1 | 0.00 | 0.03 | 0.00 | 83 | 1009.2 |
| 20260506072003 | 8 | 262 | 1.6 | 16.1 | 0.00 | 0.03 | 0.00 | 83 | 1009.1 |
| 20260506071504 | 8 | 249 | 8.0 | 19.3 | 0.00 | 0.03 | 0.00 | 83 | 1009.0 |
| 20260506071003 | 8 | 256 | 4.8 | 14.5 | 0.00 | 0.03 | 0.00 | 83 | 1008.8 |
| 20260506070503 | 8 | 253 | 4.8 | 11.3 | 0.00 | 0.03 | 0.00 | 83 | 1008.7 |
| 20260506062503 | 9 | 232 | 4.8 | 12.9 | 0.00 | 0.03 | 0.00 | 85 | 1008.8 |
| 20260506062003 | 9 | 234 | 1.6 | 4.8 | 0.00 | 0.03 | 0.00 | 85 | 1008.5 |
| 20260506061503 | 9 | 248 | 3.2 | 4.8 | 0.00 | 0.03 | 0.00 | 85 | 1008.5 |
| 20260506061003 | 9 | 230 | 4.8 | 12.9 | 0.00 | 0.03 | 0.00 | 85 | 1008.5 |
| 20260506060504 | 9 | 224 | 3.2 | 11.3 | 0.00 | 0.03 | 0.00 | 85 | 1008.4 |